Location: ??
(35.1714°N, 128.2806°E)
Time: 04:04:01
(UTC+00:00)

Tiangong - Pass Details

Date: 24 June 2021
Orbit: 373 x 386 km, 41.5° (Epoch: 28 July)

Event Time Altitude Azimuth Distance (km) Brightness Sun altitude
Exits shadow 17:18:09 20° 47° (NE) 935 3.7 -26.0°
Drops below altitude 10° 17:19:21 10° 57° (ENE) 1,388 4.7 -25.9°
Sets 17:21:28 0° 64° (ENE) 2,244 5.8 -25.7°
